FIN1571 EFHK-LFPG

Flight info

Callsign FIN1571
Flight time 2h 41m
Altitude 36000
Route NUNTO Y369 REKDO DCT KOSKA DCT KOKOR DCT IDOSA UN857 TOLVU/N0454F370 DCT RAPOR DCT VEDUS
Aircraft A320/M-SDE3FGHIRWY/LB1

Departure

Time 2026-05-06 07:53
Airport Helsinki Vantaa Airport (EFHK)

Arrival

Time 2026-05-06 10:35
Airport Charles de Gaulle International Airport (LFPG)
Time Latitude Longitude Altitude Speed Heading
2026-05-06 07:33 60.31965 24.96740 167 ft 0 kts 174°
2026-05-06 07:46 60.31972 24.96738 166 ft 2 kts 173°
2026-05-06 07:46 60.31992 24.96732 166 ft 3 kts 165°
2026-05-06 07:46 60.32011 24.96719 166 ft 3 kts 144°
2026-05-06 07:46 60.32021 24.96699 166 ft 3 kts 85°
2026-05-06 07:47 60.32020 24.96687 166 ft 0 kts 47°
2026-05-06 07:49 60.32025 24.96698 166 ft 4 kts 47°
2026-05-06 07:50 60.32059 24.96772 166 ft 9 kts 47°
2026-05-06 07:50 60.32115 24.96894 166 ft 14 kts 44°
2026-05-06 07:50 60.32170 24.96975 166 ft 10 kts 12°
2026-05-06 07:50 60.32246 24.96914 164 ft 13 kts 333°
2026-05-06 07:51 60.32335 24.96865 165 ft 13 kts 20°
2026-05-06 07:51 60.32354 24.96899 164 ft 0 kts 48°
2026-05-06 07:52 60.32377 24.96950 164 ft 10 kts 48°
2026-05-06 07:52 60.32389 24.97078 164 ft 10 kts 135°
2026-05-06 07:52 60.32255 24.97233 157 ft 53 kts 153°
2026-05-06 07:53 60.31691 24.97802 152 ft 126 kts 153°
2026-05-06 07:53 60.30735 24.98720 255 ft 171 kts 150°
2026-05-06 07:53 60.29789 25.00266 879 ft 176 kts 142°
2026-05-06 07:53 60.28684 25.01147 1599 ft 176 kts 188°
2026-05-06 07:54 60.27563 25.00076 1969 ft 190 kts 227°
2026-05-06 07:54 60.26602 24.98024 2301 ft 211 kts 230°
2026-05-06 07:54 60.25583 24.95791 2939 ft 220 kts 230°
2026-05-06 07:54 60.24537 24.93493 3713 ft 224 kts 231°
2026-05-06 07:55 60.23626 24.90926 4390 ft 232 kts 250°
2026-05-06 07:55 60.23108 24.87711 4819 ft 251 kts 256°
2026-05-06 07:55 60.22615 24.84299 5579 ft 256 kts 256°
2026-05-06 07:55 60.22116 24.80828 6448 ft 259 kts 256°
2026-05-06 07:56 60.21611 24.77331 7294 ft 262 kts 256°
2026-05-06 07:56 60.21097 24.73803 8148 ft 264 kts 256°
2026-05-06 07:56 60.20572 24.70243 8975 ft 267 kts 255°
2026-05-06 07:56 60.20038 24.66654 9850 ft 269 kts 255°
2026-05-06 07:57 60.19500 24.63041 10390 ft 282 kts 256°
2026-05-06 07:57 60.18920 24.59112 10579 ft 305 kts 256°
2026-05-06 07:57 60.18295 24.54862 10725 ft 328 kts 255°
2026-05-06 07:57 60.17624 24.50323 10861 ft 348 kts 255°
2026-05-06 07:58 60.16914 24.45553 11105 ft 363 kts 255°
2026-05-06 07:58 60.15522 24.36305 12326 ft 367 kts 255°
2026-05-06 07:58 60.14041 24.26509 13832 ft 367 kts 256°
2026-05-06 07:58 60.11366 24.08945 15967 ft 367 kts 255°
2026-05-06 07:59 60.10541 24.03544 16562 ft 368 kts 255°
2026-05-06 07:59 60.09785 23.98601 16872 ft 375 kts 255°
2026-05-06 07:59 60.07567 23.86202 18335 ft 375 kts 245°
2026-05-06 07:59 60.02656 23.67618 19794 ft 380 kts 245°
2026-05-06 08:00 59.97696 23.48813 21126 ft 385 kts 245°
2026-05-06 08:00 59.96377 23.43857 20527 ft 386 kts 243°
2026-05-06 08:00 59.95107 23.39093 21614 ft 390 kts 245°
2026-05-06 08:00 59.93852 23.34385 21998 ft 389 kts 245°
2026-05-06 08:01 59.92578 23.29625 22341 ft 389 kts 245°
2026-05-06 08:01 59.91301 23.24857 22631 ft 390 kts 245°
2026-05-06 08:01 59.90021 23.20083 22902 ft 391 kts 245°
2026-05-06 08:01 59.88734 23.15307 23160 ft 392 kts 245°
2026-05-06 08:02 59.87440 23.10520 23339 ft 394 kts 245°
2026-05-06 08:02 59.86139 23.05710 23528 ft 396 kts 245°
2026-05-06 08:02 59.84832 23.00874 23718 ft 397 kts 245°
2026-05-06 08:02 59.83521 22.96033 23930 ft 397 kts 245°
2026-05-06 08:03 59.82212 22.91215 24266 ft 395 kts 245°
2026-05-06 08:03 59.80908 22.86432 24582 ft 392 kts 245°
2026-05-06 08:03 59.79622 22.81739 24872 ft 390 kts 245°
2026-05-06 08:03 59.78307 22.76955 25169 ft 389 kts 244°
2026-05-06 08:04 59.77030 22.72318 25461 ft 387 kts 245°
2026-05-06 08:04 59.75746 22.67645 25763 ft 385 kts 245°
2026-05-06 08:04 59.74465 22.62975 26070 ft 384 kts 245°
2026-05-06 08:04 59.73192 22.58341 26382 ft 382 kts 245°
2026-05-06 08:05 59.71920 22.53724 26704 ft 381 kts 245°
2026-05-06 08:05 59.70647 22.49126 27029 ft 379 kts 244°
2026-05-06 08:05 59.69377 22.44558 27350 ft 377 kts 244°
2026-05-06 08:05 59.68114 22.40022 27685 ft 376 kts 245°
2026-05-06 08:06 59.66853 22.35500 28017 ft 374 kts 244°
2026-05-06 08:06 59.65599 22.31010 28366 ft 372 kts 245°
2026-05-06 08:06 59.64348 22.26539 28706 ft 371 kts 244°
2026-05-06 08:06 59.63099 22.22088 29050 ft 369 kts 244°
2026-05-06 08:07 59.61855 22.17664 29397 ft 368 kts 244°
2026-05-06 08:07 59.60615 22.13266 29745 ft 366 kts 244°
2026-05-06 08:07 59.59375 22.08883 30098 ft 364 kts 244°
2026-05-06 08:07 59.58159 22.04588 30386 ft 363 kts 244°
2026-05-06 08:08 59.56929 22.00234 30645 ft 362 kts 244°
2026-05-06 08:08 59.55701 21.95897 30929 ft 362 kts 244°
2026-05-06 08:08 59.54471 21.91565 31168 ft 362 kts 244°
2026-05-06 08:08 59.53239 21.87238 31417 ft 362 kts 244°
2026-05-06 08:09 59.52005 21.82916 31655 ft 362 kts 244°
2026-05-06 08:09 59.50767 21.78590 31846 ft 362 kts 244°
2026-05-06 08:09 59.49531 21.74280 32107 ft 362 kts 244°
2026-05-06 08:09 59.48294 21.69963 32342 ft 362 kts 244°
2026-05-06 08:10 59.47054 21.65650 32579 ft 362 kts 244°
2026-05-06 08:10 59.45812 21.61346 32815 ft 362 kts 244°
2026-05-06 08:10 59.44569 21.57042 33048 ft 362 kts 244°
2026-05-06 08:10 59.43326 21.52737 33279 ft 362 kts 244°
2026-05-06 08:11 59.42082 21.48431 33520 ft 363 kts 244°
2026-05-06 08:11 59.40835 21.44123 33747 ft 363 kts 244°
2026-05-06 08:11 59.39587 21.39819 33978 ft 363 kts 244°
2026-05-06 08:11 59.38338 21.35517 34177 ft 363 kts 243°
2026-05-06 08:12 59.37083 21.31208 34348 ft 364 kts 243°
2026-05-06 08:12 59.35821 21.26887 34510 ft 365 kts 243°
2026-05-06 08:12 59.34556 21.22558 34659 ft 367 kts 243°
2026-05-06 08:12 59.33283 21.18212 34805 ft 368 kts 243°
2026-05-06 08:13 59.32023 21.13911 34906 ft 369 kts 243°
2026-05-06 08:13 59.30743 21.09555 35095 ft 368 kts 243°
2026-05-06 08:13 59.29464 21.05214 35308 ft 369 kts 243°
2026-05-06 08:13 59.28180 21.00862 35443 ft 370 kts 242°
2026-05-06 08:14 59.26889 20.96498 35589 ft 371 kts 242°
2026-05-06 08:14 59.25589 20.92119 35694 ft 373 kts 242°
2026-05-06 08:14 59.24287 20.87738 35817 ft 374 kts 242°
2026-05-06 08:14 59.22980 20.83339 35975 ft 374 kts 242°
2026-05-06 08:15 59.20344 20.74515 36051 ft 378 kts 242°
2026-05-06 08:15 59.17526 20.65836 36241 ft 382 kts 234°
2026-05-06 08:16 59.15816 20.61860 36375 ft 383 kts 233°
2026-05-06 08:16 59.14103 20.57897 36496 ft 383 kts 233°
2026-05-06 08:16 59.12385 20.53929 36626 ft 384 kts 233°
2026-05-06 08:16 59.10660 20.49949 36720 ft 384 kts 233°
2026-05-06 08:17 59.08941 20.45988 36861 ft 384 kts 233°
2026-05-06 08:17 59.07214 20.42015 36991 ft 384 kts 233°
2026-05-06 08:17 59.04346 20.35431 37206 ft 384 kts 233°
2026-05-06 08:18 59.02617 20.31459 37348 ft 384 kts 233°
2026-05-06 08:18 59.00892 20.27500 37481 ft 384 kts 233°
2026-05-06 08:18 58.99163 20.23542 37616 ft 384 kts 233°
2026-05-06 08:18 58.97430 20.19597 37753 ft 384 kts 232°
2026-05-06 08:19 58.95715 20.15709 37885 ft 384 kts 232°
2026-05-06 08:19 58.93982 20.11776 38030 ft 384 kts 232°
2026-05-06 08:19 58.90499 20.03872 38087 ft 389 kts 232°
2026-05-06 08:20 58.86960 19.95863 38055 ft 394 kts 232°
2026-05-06 08:20 58.83364 19.87813 38055 ft 398 kts 232°
2026-05-06 08:21 58.79734 19.79684 38057 ft 401 kts 232°
2026-05-06 08:21 58.76084 19.71489 38054 ft 404 kts 232°
2026-05-06 08:22 58.72406 19.63272 38054 ft 405 kts 232°
2026-05-06 08:22 58.68737 19.55127 38058 ft 405 kts 232°
2026-05-06 08:23 58.65032 19.46935 38040 ft 406 kts 231°
2026-05-06 08:23 58.61316 19.38749 38060 ft 406 kts 231°
2026-05-06 08:24 58.57592 19.30583 38066 ft 407 kts 231°
2026-05-06 08:24 58.53870 19.22408 38069 ft 406 kts 231°
2026-05-06 08:25 58.50169 19.14324 38068 ft 406 kts 231°
2026-05-06 08:25 58.46437 19.06210 38035 ft 406 kts 231°
2026-05-06 08:26 58.42699 18.98117 38061 ft 406 kts 231°
2026-05-06 08:26 58.38953 18.90036 38067 ft 406 kts 231°
2026-05-06 08:27 58.35213 18.81979 38063 ft 406 kts 231°
2026-05-06 08:27 58.31462 18.73947 38065 ft 406 kts 231°
2026-05-06 08:28 58.27706 18.65937 38065 ft 406 kts 231°
2026-05-06 08:28 58.23946 18.57925 38016 ft 406 kts 231°
2026-05-06 08:29 58.20186 18.49937 38032 ft 406 kts 230°
2026-05-06 08:29 58.16416 18.41960 38042 ft 406 kts 230°
2026-05-06 08:30 58.12644 18.34016 38043 ft 406 kts 230°
2026-05-06 08:30 58.08866 18.26081 38049 ft 406 kts 230°
2026-05-06 08:31 58.05102 18.18205 38049 ft 406 kts 230°
2026-05-06 08:31 58.01308 18.10298 38022 ft 406 kts 230°
2026-05-06 08:32 57.97516 18.02421 38031 ft 406 kts 230°
2026-05-06 08:32 57.93713 17.94542 38037 ft 406 kts 230°
2026-05-06 08:33 57.89914 17.86689 38042 ft 406 kts 230°
2026-05-06 08:33 57.86105 17.78858 38045 ft 406 kts 230°
2026-05-06 08:34 57.80381 17.67141 38047 ft 406 kts 230°
2026-05-06 08:35 57.76568 17.59344 38012 ft 406 kts 229°
2026-05-06 08:35 57.72744 17.51569 38027 ft 406 kts 229°
2026-05-06 08:36 57.68911 17.43813 38034 ft 406 kts 229°
2026-05-06 08:36 57.65076 17.36072 38041 ft 406 kts 229°
2026-05-06 08:37 57.61265 17.28399 38038 ft 406 kts 229°
2026-05-06 08:37 57.57420 17.20683 38039 ft 406 kts 229°
2026-05-06 08:38 57.53576 17.12977 38041 ft 406 kts 229°
2026-05-06 08:38 57.49722 17.05291 38041 ft 406 kts 229°
2026-05-06 08:39 57.45865 16.97625 38060 ft 406 kts 229°
2026-05-06 08:39 57.41996 16.89974 38054 ft 406 kts 229°
2026-05-06 08:40 57.38124 16.82323 38048 ft 406 kts 229°
2026-05-06 08:40 57.34275 16.74741 38018 ft 406 kts 228°
2026-05-06 08:41 57.30393 16.67148 38026 ft 406 kts 228°
2026-05-06 08:41 57.26504 16.59567 38025 ft 406 kts 228°
2026-05-06 08:42 57.22613 16.51992 38028 ft 406 kts 228°
2026-05-06 08:42 57.18715 16.44430 38028 ft 406 kts 228°
2026-05-06 08:43 57.14815 16.36883 38026 ft 406 kts 228°
2026-05-06 08:43 57.10918 16.29353 38000 ft 407 kts 227°
2026-05-06 08:44 57.07002 16.21829 38000 ft 407 kts 227°
2026-05-06 08:44 57.03081 16.14318 38008 ft 407 kts 227°
2026-05-06 08:45 56.99184 16.06871 38039 ft 407 kts 227°
2026-05-06 08:45 56.95246 15.99387 38027 ft 407 kts 227°
2026-05-06 08:46 56.91310 15.91927 38023 ft 407 kts 227°
2026-05-06 08:46 56.87371 15.84468 37986 ft 408 kts 227°
2026-05-06 08:47 56.83430 15.77013 37995 ft 408 kts 227°
2026-05-06 08:47 56.79476 15.69571 38005 ft 408 kts 227°
2026-05-06 08:48 56.75505 15.62163 38003 ft 408 kts 226°
2026-05-06 08:48 56.71531 15.54765 37994 ft 409 kts 226°
2026-05-06 08:49 56.67557 15.47373 37966 ft 409 kts 226°
2026-05-06 08:49 56.63583 15.39983 37972 ft 409 kts 226°
2026-05-06 08:50 56.59595 15.32595 37967 ft 409 kts 226°
2026-05-06 08:50 56.55595 15.25228 37972 ft 410 kts 226°
2026-05-06 08:51 56.51589 15.17884 37999 ft 410 kts 226°
2026-05-06 08:51 56.47598 15.10573 37982 ft 410 kts 226°
2026-05-06 08:52 56.43584 15.03241 37948 ft 411 kts 226°
2026-05-06 08:52 56.39558 14.95907 37962 ft 411 kts 226°
2026-05-06 08:53 56.35524 14.88587 37963 ft 412 kts 225°
2026-05-06 08:53 56.31471 14.81273 37965 ft 412 kts 225°
2026-05-06 08:54 56.27418 14.73976 37969 ft 412 kts 225°
2026-05-06 08:54 56.23385 14.66713 37953 ft 412 kts 225°
2026-05-06 08:55 56.19321 14.59431 37951 ft 413 kts 225°
2026-05-06 08:55 56.15236 14.52147 37955 ft 413 kts 225°
2026-05-06 08:56 56.11150 14.44870 37957 ft 413 kts 225°
2026-05-06 08:56 56.07091 14.37654 37956 ft 414 kts 225°
2026-05-06 08:57 56.02990 14.30409 37977 ft 414 kts 225°
2026-05-06 08:57 55.98884 14.23183 37939 ft 415 kts 225°
2026-05-06 08:58 55.94770 14.15952 37940 ft 415 kts 225°
2026-05-06 08:58 55.90644 14.08727 37942 ft 416 kts 224°
2026-05-06 08:59 55.86503 14.01497 37956 ft 416 kts 224°
2026-05-06 08:59 55.82365 13.94284 37954 ft 416 kts 224°
2026-05-06 09:00 55.78222 13.87087 37944 ft 417 kts 224°
2026-05-06 09:00 55.74089 13.79948 37936 ft 417 kts 224°
2026-05-06 09:01 55.69922 13.72769 37941 ft 418 kts 224°
2026-05-06 09:01 55.65748 13.65589 37944 ft 418 kts 224°
2026-05-06 09:02 55.61570 13.58423 37941 ft 418 kts 224°
2026-05-06 09:02 55.57382 13.51274 37944 ft 419 kts 224°
2026-05-06 09:03 55.53186 13.44125 37923 ft 419 kts 224°
2026-05-06 09:03 55.49691 13.38180 37920 ft 420 kts 224°
2026-05-06 09:04 55.45479 13.31029 37921 ft 421 kts 224°
2026-05-06 09:04 55.41249 13.23900 37924 ft 421 kts 223°
2026-05-06 09:05 55.37010 13.16776 37928 ft 421 kts 223°
2026-05-06 09:05 55.32777 13.09670 37935 ft 421 kts 223°
2026-05-06 09:06 55.28534 13.02559 37934 ft 422 kts 223°
2026-05-06 09:06 55.24280 12.95472 37936 ft 422 kts 223°
2026-05-06 09:07 55.20020 12.88403 37934 ft 422 kts 223°
2026-05-06 09:07 55.15754 12.81337 37937 ft 422 kts 223°
2026-05-06 09:08 55.11510 12.74332 37920 ft 422 kts 223°
2026-05-06 09:08 55.07238 12.67289 37935 ft 423 kts 223°
2026-05-06 09:09 55.02955 12.60248 37936 ft 423 kts 223°
2026-05-06 09:09 54.98659 12.53217 37931 ft 423 kts 223°
2026-05-06 09:10 54.94360 12.46209 37930 ft 423 kts 223°
2026-05-06 09:10 54.90056 12.39202 37928 ft 424 kts 223°
2026-05-06 09:11 54.85770 12.32264 37909 ft 424 kts 222°
2026-05-06 09:11 54.81445 12.25281 37906 ft 425 kts 222°
2026-05-06 09:12 54.77111 12.18282 37909 ft 426 kts 222°
2026-05-06 09:12 54.72769 12.11304 37908 ft 426 kts 222°
2026-05-06 09:13 54.68420 12.04332 37916 ft 426 kts 222°
2026-05-06 09:13 54.66237 12.00850 37751 ft 428 kts 222°
2026-05-06 09:13 54.64048 11.97370 37327 ft 428 kts 222°
2026-05-06 09:13 54.61857 11.93892 36925 ft 428 kts 221°
2026-05-06 09:14 54.59664 11.90401 36550 ft 429 kts 221°
2026-05-06 09:14 54.57474 11.86912 36151 ft 429 kts 221°
2026-05-06 09:14 54.55277 11.83424 35768 ft 429 kts 220°
2026-05-06 09:14 54.53064 11.79930 35390 ft 433 kts 220°
2026-05-06 09:15 54.50837 11.76419 35016 ft 435 kts 220°
2026-05-06 09:15 54.48607 11.72912 34644 ft 435 kts 219°
2026-05-06 09:15 54.46369 11.69403 34281 ft 435 kts 219°
2026-05-06 09:15 54.44091 11.65970 33954 ft 435 kts 217°
2026-05-06 09:16 54.41764 11.62626 33873 ft 437 kts 216°
2026-05-06 09:16 54.37021 11.56037 33888 ft 440 kts 216°
2026-05-06 09:17 54.32259 11.49437 33890 ft 440 kts 216°
2026-05-06 09:17 54.27541 11.42824 33894 ft 441 kts 216°
2026-05-06 09:18 54.22801 11.36171 33885 ft 440 kts 216°
2026-05-06 09:18 54.18038 11.29531 33889 ft 443 kts 216°
2026-05-06 09:19 54.13256 11.22896 33894 ft 443 kts 216°
2026-05-06 09:19 54.08495 11.16309 33886 ft 443 kts 216°
2026-05-06 09:20 54.03713 11.09700 33881 ft 441 kts 216°
2026-05-06 09:20 53.98955 11.03149 33868 ft 440 kts 216°
2026-05-06 09:21 53.94187 10.96602 33874 ft 441 kts 215°
2026-05-06 09:21 53.89413 10.90071 33865 ft 441 kts 215°
2026-05-06 09:22 53.84633 10.83559 33864 ft 441 kts 215°
2026-05-06 09:22 53.79851 10.77058 33865 ft 441 kts 215°
2026-05-06 09:23 53.75062 10.70570 33867 ft 441 kts 216°
2026-05-06 09:23 53.70256 10.64083 33867 ft 442 kts 216°
2026-05-06 09:24 53.65454 10.57597 33862 ft 442 kts 216°
2026-05-06 09:24 53.60506 10.51501 33859 ft 436 kts 201°
2026-05-06 09:24 53.57619 10.50126 33862 ft 432 kts 187°
2026-05-06 09:25 53.54640 10.49340 33855 ft 433 kts 187°
2026-05-06 09:25 53.48691 10.47694 33853 ft 434 kts 188°
2026-05-06 09:26 53.42773 10.45975 33850 ft 434 kts 188°
2026-05-06 09:26 53.36819 10.44234 33842 ft 434 kts 188°
2026-05-06 09:27 53.30871 10.42503 33842 ft 434 kts 188°
2026-05-06 09:27 53.24915 10.40782 33832 ft 436 kts 188°
2026-05-06 09:28 53.18927 10.39074 33837 ft 436 kts 188°
2026-05-06 09:28 53.12948 10.37191 33837 ft 437 kts 194°
2026-05-06 09:29 53.07424 10.32926 33834 ft 442 kts 212°
2026-05-06 09:29 53.02559 10.26613 33840 ft 444 kts 216°
2026-05-06 09:30 52.97696 10.20279 33834 ft 444 kts 215°
2026-05-06 09:30 52.92840 10.13948 33839 ft 444 kts 215°
2026-05-06 09:31 52.87991 10.07597 33840 ft 444 kts 215°
2026-05-06 09:31 52.83176 10.01300 33837 ft 444 kts 215°
2026-05-06 09:32 52.78328 9.94967 33832 ft 445 kts 216°
2026-05-06 09:32 52.73462 9.88652 33825 ft 445 kts 216°
2026-05-06 09:33 52.68596 9.82360 33835 ft 445 kts 216°
2026-05-06 09:33 52.63729 9.76070 33831 ft 445 kts 216°
2026-05-06 09:34 52.58863 9.69793 33833 ft 445 kts 216°
2026-05-06 09:34 52.53980 9.63523 33839 ft 445 kts 216°
2026-05-06 09:35 52.49102 9.57276 33841 ft 445 kts 216°
2026-05-06 09:35 52.44213 9.51039 33809 ft 445 kts 216°
2026-05-06 09:36 52.39325 9.44833 33812 ft 445 kts 216°
2026-05-06 09:36 52.34425 9.38616 33808 ft 446 kts 216°
2026-05-06 09:37 52.29543 9.32323 33809 ft 447 kts 218°
2026-05-06 09:37 52.24871 9.25610 33809 ft 448 kts 220°
2026-05-06 09:38 52.20313 9.18772 33810 ft 448 kts 220°
2026-05-06 09:38 52.15690 9.11975 33808 ft 447 kts 220°
2026-05-06 09:39 52.11033 9.05261 33810 ft 447 kts 220°
2026-05-06 09:39 52.06374 8.98585 33806 ft 446 kts 220°
2026-05-06 09:40 52.01716 8.91907 33797 ft 446 kts 220°
2026-05-06 09:40 51.94733 8.81914 33791 ft 446 kts 220°
2026-05-06 09:41 51.90065 8.75269 33793 ft 447 kts 220°
2026-05-06 09:41 51.85395 8.68624 33787 ft 447 kts 220°
2026-05-06 09:42 51.80721 8.61999 33786 ft 447 kts 220°
2026-05-06 09:42 51.76063 8.55427 33786 ft 447 kts 220°
2026-05-06 09:43 51.71381 8.48833 33783 ft 446 kts 220°
2026-05-06 09:43 51.66704 8.42270 33786 ft 445 kts 220°
2026-05-06 09:44 51.62035 8.35720 33789 ft 445 kts 220°
2026-05-06 09:44 51.57352 8.29191 33785 ft 445 kts 220°
2026-05-06 09:45 51.52695 8.22714 33784 ft 445 kts 220°
2026-05-06 09:45 51.48021 8.16223 33783 ft 445 kts 220°
2026-05-06 09:46 51.43340 8.09730 33783 ft 445 kts 220°
2026-05-06 09:46 51.38642 8.03240 33785 ft 446 kts 220°
2026-05-06 09:47 51.33931 7.96763 33784 ft 446 kts 220°
2026-05-06 09:47 51.29246 7.90347 33774 ft 445 kts 220°
2026-05-06 09:48 51.24551 7.83911 33775 ft 444 kts 220°
2026-05-06 09:48 51.19858 7.77486 33777 ft 444 kts 220°
2026-05-06 09:49 51.15922 7.72123 33774 ft 444 kts 219°
2026-05-06 09:49 51.11239 7.65772 33775 ft 444 kts 219°
2026-05-06 09:50 51.06535 7.59400 33772 ft 443 kts 220°
2026-05-06 09:50 51.01826 7.53031 33777 ft 445 kts 219°
2026-05-06 09:51 50.97097 7.46659 33792 ft 446 kts 219°
2026-05-06 09:51 50.92393 7.40347 33800 ft 446 kts 219°
2026-05-06 09:52 50.87654 7.34002 33807 ft 446 kts 219°
2026-05-06 09:52 50.82912 7.27665 33810 ft 446 kts 219°
2026-05-06 09:53 50.78171 7.21346 33809 ft 446 kts 219°
2026-05-06 09:53 50.73426 7.15033 33805 ft 446 kts 219°
2026-05-06 09:54 50.68670 7.08740 33801 ft 446 kts 219°
2026-05-06 09:54 50.63920 7.02480 33796 ft 445 kts 219°
2026-05-06 09:55 50.59167 6.96228 33783 ft 446 kts 219°
2026-05-06 09:55 50.54431 6.89984 33783 ft 447 kts 219°
2026-05-06 09:56 50.49656 6.83712 33788 ft 447 kts 219°
2026-05-06 09:56 50.44869 6.77463 33774 ft 447 kts 219°
2026-05-06 09:57 50.40081 6.71236 33776 ft 447 kts 219°
2026-05-06 09:57 50.35298 6.65011 33771 ft 447 kts 219°
2026-05-06 09:58 50.30515 6.58798 33763 ft 447 kts 219°
2026-05-06 09:58 50.25737 6.52607 33704 ft 443 kts 219°
2026-05-06 09:59 50.23369 6.49546 33405 ft 440 kts 219°
2026-05-06 09:59 50.21040 6.46546 33136 ft 438 kts 219°
2026-05-06 09:59 50.18690 6.43523 32869 ft 437 kts 219°
2026-05-06 09:59 50.16345 6.40509 32630 ft 439 kts 219°
2026-05-06 10:00 50.13977 6.37470 32363 ft 442 kts 219°
2026-05-06 10:00 50.11597 6.34420 32101 ft 444 kts 219°
2026-05-06 10:00 50.09205 6.31356 31837 ft 444 kts 219°
2026-05-06 10:00 50.06817 6.28307 31572 ft 445 kts 219°
2026-05-06 10:01 50.04416 6.25251 31317 ft 446 kts 219°
2026-05-06 10:01 50.02013 6.22193 31067 ft 445 kts 219°
2026-05-06 10:01 49.99631 6.19164 30835 ft 439 kts 219°
2026-05-06 10:01 49.97276 6.16173 30579 ft 436 kts 219°
2026-05-06 10:02 49.94928 6.13191 30330 ft 435 kts 219°
2026-05-06 10:02 49.92591 6.10222 30087 ft 434 kts 220°
2026-05-06 10:02 49.90252 6.07249 29839 ft 434 kts 220°
2026-05-06 10:02 49.87914 6.04284 29554 ft 434 kts 220°
2026-05-06 10:03 49.85580 6.01328 29262 ft 434 kts 220°
2026-05-06 10:03 49.83230 5.98361 28982 ft 435 kts 219°
2026-05-06 10:03 49.80877 5.95399 28688 ft 436 kts 219°
2026-05-06 10:03 49.78531 5.92452 28408 ft 435 kts 219°
2026-05-06 10:04 49.76321 5.89345 28129 ft 435 kts 227°
2026-05-06 10:04 49.74439 5.85674 27862 ft 438 kts 236°
2026-05-06 10:04 49.72960 5.81529 27593 ft 442 kts 245°
2026-05-06 10:04 49.71870 5.77056 27333 ft 445 kts 249°
2026-05-06 10:05 49.70832 5.72547 27063 ft 447 kts 249°
2026-05-06 10:05 49.69780 5.68009 26791 ft 448 kts 249°
2026-05-06 10:05 49.68722 5.63467 26530 ft 449 kts 249°
2026-05-06 10:05 49.67659 5.58929 26278 ft 450 kts 249°
2026-05-06 10:06 49.66586 5.54373 26020 ft 451 kts 249°
2026-05-06 10:06 49.65512 5.49813 25760 ft 452 kts 249°
2026-05-06 10:06 49.64439 5.45248 25507 ft 454 kts 249°
2026-05-06 10:06 49.63360 5.40666 25262 ft 455 kts 249°
2026-05-06 10:07 49.62275 5.36066 25024 ft 460 kts 250°
2026-05-06 10:07 49.61219 5.31394 24776 ft 461 kts 250°
2026-05-06 10:07 49.60210 5.26700 24533 ft 462 kts 251°
2026-05-06 10:07 49.59462 5.21885 24286 ft 464 kts 260°
2026-05-06 10:08 49.59192 5.16929 24056 ft 465 kts 268°
2026-05-06 10:08 49.59250 5.11949 23842 ft 464 kts 269°
2026-05-06 10:08 49.59304 5.07046 23810 ft 463 kts 269°
2026-05-06 10:08 49.59340 5.02067 23825 ft 464 kts 269°
2026-05-06 10:09 49.59368 4.97099 23827 ft 464 kts 269°
2026-05-06 10:09 49.59397 4.92138 23825 ft 456 kts 270°
2026-05-06 10:09 49.59429 4.87381 23823 ft 433 kts 270°
2026-05-06 10:09 49.59455 4.82814 23832 ft 423 kts 270°
2026-05-06 10:10 49.59479 4.78303 23835 ft 420 kts 270°
2026-05-06 10:10 49.59502 4.73791 23561 ft 420 kts 270°
2026-05-06 10:10 49.59523 4.69307 23225 ft 417 kts 270°
2026-05-06 10:10 49.59543 4.64856 22938 ft 414 kts 269°
2026-05-06 10:11 49.59564 4.60428 22645 ft 413 kts 269°
2026-05-06 10:11 49.59585 4.56007 22354 ft 411 kts 270°
2026-05-06 10:11 49.59606 4.51604 22066 ft 409 kts 269°
2026-05-06 10:11 49.59623 4.47226 21787 ft 408 kts 270°
2026-05-06 10:12 49.59638 4.42856 21498 ft 407 kts 270°
2026-05-06 10:12 49.59649 4.38495 21211 ft 406 kts 270°
2026-05-06 10:12 49.59655 4.34155 20929 ft 404 kts 270°
2026-05-06 10:12 49.59657 4.29889 20644 ft 402 kts 269°
2026-05-06 10:13 49.59659 4.25587 20361 ft 401 kts 269°
2026-05-06 10:13 49.59664 4.21298 20070 ft 399 kts 269°
2026-05-06 10:13 49.59669 4.17033 19796 ft 397 kts 269°
2026-05-06 10:13 49.59667 4.12788 19523 ft 395 kts 267°
2026-05-06 10:14 49.59349 4.08602 19246 ft 392 kts 256°
2026-05-06 10:14 49.58528 4.04619 18969 ft 387 kts 245°
2026-05-06 10:14 49.57269 4.00986 18693 ft 383 kts 236°
2026-05-06 10:14 49.55818 3.97546 18423 ft 382 kts 236°
2026-05-06 10:15 49.54370 3.94113 18157 ft 381 kts 236°
2026-05-06 10:15 49.52931 3.90701 17862 ft 378 kts 235°
2026-05-06 10:15 49.51515 3.87356 17594 ft 377 kts 235°
2026-05-06 10:15 49.50084 3.83980 17335 ft 376 kts 236°
2026-05-06 10:16 49.48661 3.80614 17071 ft 374 kts 236°
2026-05-06 10:16 49.47469 3.77063 16800 ft 374 kts 247°
2026-05-06 10:16 49.46712 3.73238 16543 ft 374 kts 255°
2026-05-06 10:16 49.46070 3.69364 16280 ft 374 kts 255°
2026-05-06 10:17 49.45419 3.65505 16016 ft 372 kts 254°
2026-05-06 10:17 49.44764 3.61659 15777 ft 370 kts 254°
2026-05-06 10:17 49.44109 3.57836 15669 ft 370 kts 254°
2026-05-06 10:17 49.43454 3.54015 15539 ft 370 kts 255°
2026-05-06 10:18 49.42800 3.50188 15399 ft 369 kts 255°
2026-05-06 10:18 49.42150 3.46386 15262 ft 367 kts 254°
2026-05-06 10:18 49.41294 3.42697 15121 ft 367 kts 248°
2026-05-06 10:18 49.40329 3.39074 14990 ft 367 kts 248°
2026-05-06 10:19 49.39359 3.35453 14861 ft 366 kts 248°
2026-05-06 10:19 49.38392 3.31840 14721 ft 365 kts 248°
2026-05-06 10:19 49.37427 3.28247 14584 ft 364 kts 248°
2026-05-06 10:19 49.36462 3.24661 14446 ft 364 kts 248°
2026-05-06 10:20 49.35505 3.21113 14321 ft 363 kts 248°
2026-05-06 10:20 49.34538 3.17534 14179 ft 362 kts 248°
2026-05-06 10:20 49.33575 3.13971 14051 ft 362 kts 248°
2026-05-06 10:20 49.32613 3.10407 13914 ft 361 kts 248°
2026-05-06 10:21 49.31653 3.06846 13771 ft 361 kts 249°
2026-05-06 10:21 49.30696 3.03296 13627 ft 359 kts 249°
2026-05-06 10:21 49.29743 2.99767 13498 ft 359 kts 249°
2026-05-06 10:21 49.28787 2.96236 13366 ft 358 kts 249°
2026-05-06 10:22 49.27830 2.92714 13232 ft 358 kts 249°
2026-05-06 10:22 49.26870 2.89201 13098 ft 357 kts 249°
2026-05-06 10:22 49.25908 2.85703 12970 ft 355 kts 248°
2026-05-06 10:22 49.24950 2.82223 12838 ft 354 kts 248°
2026-05-06 10:23 49.24005 2.78796 12703 ft 354 kts 248°
2026-05-06 10:23 49.23053 2.75334 12576 ft 352 kts 248°
2026-05-06 10:23 49.22120 2.71938 12452 ft 340 kts 248°
2026-05-06 10:23 49.21217 2.68654 12328 ft 329 kts 248°
2026-05-06 10:24 49.20341 2.65471 12205 ft 321 kts 248°
2026-05-06 10:24 49.19487 2.62372 12067 ft 312 kts 248°
2026-05-06 10:24 49.18661 2.59372 11931 ft 300 kts 250°
2026-05-06 10:24 49.18128 2.56343 11743 ft 291 kts 264°
2026-05-06 10:25 49.18015 2.53257 11474 ft 290 kts 269°
2026-05-06 10:25 49.17956 2.50179 11157 ft 289 kts 269°
2026-05-06 10:25 49.17890 2.47114 10891 ft 288 kts 269°
2026-05-06 10:25 49.17821 2.44060 10616 ft 288 kts 269°
2026-05-06 10:26 49.17753 2.41006 10307 ft 287 kts 268°
2026-05-06 10:26 49.17687 2.37955 9995 ft 286 kts 269°
2026-05-06 10:26 49.17584 2.34917 9646 ft 286 kts 266°
2026-05-06 10:26 49.17408 2.31911 9305 ft 283 kts 265°
2026-05-06 10:27 49.17200 2.28920 8973 ft 282 kts 265°
2026-05-06 10:27 49.16989 2.25979 8649 ft 281 kts 265°
2026-05-06 10:27 49.16779 2.23013 8324 ft 280 kts 266°
2026-05-06 10:27 49.16577 2.20056 7985 ft 279 kts 267°
2026-05-06 10:28 49.16329 2.17140 7660 ft 277 kts 257°
2026-05-06 10:28 49.15460 2.14525 7256 ft 281 kts 233°
2026-05-06 10:28 49.13936 2.12633 6749 ft 287 kts 207°
2026-05-06 10:28 49.12007 2.11877 6141 ft 288 kts 180°
2026-05-06 10:29 49.10078 2.12441 5488 ft 280 kts 153°
2026-05-06 10:29 49.08501 2.14074 4846 ft 271 kts 135°
2026-05-06 10:29 49.07090 2.15960 4196 ft 268 kts 135°
2026-05-06 10:29 49.05694 2.17825 3649 ft 263 kts 135°
2026-05-06 10:30 49.04340 2.19630 3263 ft 254 kts 134°
2026-05-06 10:30 49.03056 2.21340 3013 ft 241 kts 134°
2026-05-06 10:30 49.01914 2.23090 3001 ft 224 kts 120°
2026-05-06 10:30 49.01252 2.25143 3005 ft 211 kts 99°
2026-05-06 10:31 49.01080 2.27293 3008 ft 201 kts 80°
2026-05-06 10:31 49.01194 2.29395 3007 ft 201 kts 79°
2026-05-06 10:31 49.01316 2.31518 3004 ft 201 kts 79°
2026-05-06 10:31 49.01436 2.33656 2858 ft 201 kts 79°
2026-05-06 10:32 49.01553 2.35761 2622 ft 198 kts 79°
2026-05-06 10:32 49.01669 2.37848 2358 ft 196 kts 79°
2026-05-06 10:32 49.01780 2.39870 2106 ft 187 kts 80°
2026-05-06 10:32 49.01885 2.41791 1854 ft 177 kts 80°
2026-05-06 10:33 49.01986 2.43620 1586 ft 169 kts 80°
2026-05-06 10:33 49.02078 2.45313 1386 ft 153 kts 79°
2026-05-06 10:33 49.02169 2.46862 1140 ft 146 kts 80°
2026-05-06 10:33 49.02251 2.48428 957 ft 146 kts 81°
2026-05-06 10:34 49.02307 2.49969 744 ft 145 kts 78°
2026-05-06 10:34 49.02408 2.51454 549 ft 142 kts 78°
2026-05-06 10:34 49.02498 2.52941 366 ft 137 kts 83°
2026-05-06 10:34 49.02564 2.54109 354 ft 69 kts 85°
2026-05-06 10:35 49.02555 2.54522 351 ft 35 kts 105°
2026-05-06 10:35 49.02509 2.54767 358 ft 18 kts 108°
2026-05-06 10:35 49.02477 2.54947 362 ft 17 kts 104°
2026-05-06 10:35 49.02450 2.55110 360 ft 15 kts 103°
2026-05-06 10:36 49.02447 2.55261 354 ft 14 kts 85°
2026-05-06 10:36 49.02459 2.55445 354 ft 21 kts 84°
2026-05-06 10:36 49.02452 2.55561 360 ft 15 kts 113°
2026-05-06 10:36 49.02367 2.55619 354 ft 13 kts 177°
2026-05-06 10:37 49.02269 2.55629 356 ft 18 kts 175°
2026-05-06 10:37 49.02144 2.55645 358 ft 17 kts 175°
2026-05-06 10:37 49.02066 2.55555 356 ft 15 kts 259°
2026-05-06 10:37 49.02056 2.55372 354 ft 19 kts 265°
2026-05-06 10:38 49.02045 2.55149 362 ft 22 kts 266°
2026-05-06 10:38 49.02032 2.54905 359 ft 24 kts 264°
2026-05-06 10:38 49.02018 2.54643 363 ft 25 kts 265°
2026-05-06 10:38 49.02004 2.54366 358 ft 27 kts 265°
2026-05-06 10:39 49.01959 2.54157 354 ft 19 kts 221°
2026-05-06 10:39 49.01848 2.54136 358 ft 14 kts 171°
2026-05-06 10:39 49.01772 2.54191 361 ft 9 kts 128°
2026-05-06 10:39 49.01727 2.54190 357 ft 7 kts 227°
2026-05-06 10:40 49.01722 2.54182 360 ft 0 kts 227°